Regional Weather Roundup
Issued by NWS

Home | Current Version | Previous Version | Text Only | Print | Product List | Glossary Off
Versions: 1 2 3 4 5 6 7 8 9 10 11 12 13 14 15 16 17 18 19 20 21 22 23 24 25 26 27 28 29 30 31 32 33 34 35 36 37 38 39 40 41 42 43 44 45 46 47 48 49 50

000
ASUS43 KOAX 261210
RWRNE

WEATHER ROUNDUP FOR NEBRASKA
NATIONAL WEATHER SERVICE OMAHA NE
700 AM CDT WED JUL 26 2017

NOTES: SATELLITE DATA IS BEING USED TO AUGMENT CLOUD COVER ABOVE
       12000 FEET.
       "FAIR" INDICATES FEW OR NO CLOUDS BELOW 12,000 FEET WITH NO
       SIGNIFICANT WEATHER AND/OR OBSTRUCTIONS TO VISIBILITY.


NEZ001>004-019>022-054>056-261300-
NEBRASKA PANHANDLE

CITY           SKY/WX    TMP DP  RH WIND       PRES   REMARKS
SCOTTSBLUFF    CLOUDY    70  57  63 NW7       30.15R
6HR MIN TEMP:  70; 6HR MAX TEMP:  76;

ALLIANCE       CLOUDY    67  63  87 N12       30.11R
6HR MIN TEMP:  67; 6HR MAX TEMP:  70;

CHADRON        CLOUDY    69  52  54 N6        30.12R
6HR MIN TEMP:  68; 6HR MAX TEMP:  76; 6HR PCP: TRACE;

GORDON         CLOUDY    67  62  84 N7        30.11R
6HR MIN TEMP:  67; 6HR MAX TEMP:  72; 6HR PCP:  0.01;

KIMBALL        CLOUDY    67  64  91 N9        30.18R
SIDNEY         CLOUDY    67  63  87 N13       30.14R
6HR MIN TEMP:  67; 6HR MAX TEMP:  74;

$$

NEZ057>060-069>072-079>082-261300-
SOUTHWEST NEBRASKA

CITY           SKY/WX    TMP DP  RH WIND       PRES   REMARKS
NORTH PLATTE   MOCLDY    68  66  93 NE9       29.98S
6HR MIN TEMP:  68; 6HR MAX TEMP:  79; 6HR PCP: TRACE;

IMPERIAL       CLOUDY    69  66  90 N12       30.01R
6HR MIN TEMP:  69; 6HR MAX TEMP:  76;

LEXINGTON      CLOUDY    70  68  93 E12       29.96R
MCCOOK         MOCLDY    71  70  96 NE12      29.92R
6HR MIN TEMP:  71; 6HR MAX TEMP:  82;

OGALLALA       CLOUDY    71  65  81 N10       30.05R
$$

NEZ005>010-023>029-035>040-094-261300-
NORTH CENTRAL NEBRASKA

CITY           SKY/WX    TMP DP  RH WIND       PRES   REMARKS
VALENTINE      CLOUDY    70  66  87 N7        30.04R
6HR MIN TEMP:  70; 6HR MAX TEMP:  72; 6HR PCP:  0.02;

AINSWORTH      CLOUDY    68  68 100 SW6       30.03R
BROKEN BOW     CLOUDY    68  65  90 SE7       29.98S
6HR MIN TEMP:  68; 6HR MAX TEMP:  78; 6HR PCP:  0.04;

O`NEILL        CLOUDY    70  70 100 NW5       30.00R
ORD            CLOUDY    68  65  90 E3        29.96S
6HR MIN TEMP:  68; 6HR MAX TEMP:  72; 6HR PCP:  1.04;

THEDFORD       CLOUDY    68  67  94 N3        30.05R
$$

NEZ041-046>049-061>064-073>077-083>087-261300-
SOUTH CENTRAL NEBRASKA

CITY           SKY/WX    TMP DP  RH WIND       PRES   REMARKS
GRAND ISLAND   CLOUDY    70  70 100 NE6       29.97F
6HR MIN TEMP:  69; 6HR MAX TEMP:  80; 6HR PCP:  0.48;

AURORA         CLOUDY    70  70 100 CALM      29.97F
HASTINGS       CLOUDY    70  68  93 NE7       29.96S
6HR MIN TEMP:  70; 6HR MAX TEMP:  82; 6HR PCP:  0.51;

HEBRON         LGT RAIN  74  73  95 SE6       29.99F
HOLDREGE       CLOUDY    69  66  90 E10       29.94R
KEARNEY        CLOUDY    69  68  96 E14       29.95S
YORK           LGT RAIN  72  72 100 CALM      29.97F
$$

NEZ011>018-030>034-042>045-261300-
NORTHEAST NEBRASKA

CITY           SKY/WX    TMP DP  RH WIND       PRES   REMARKS
NORFOLK        RAIN      71  69  93 SE13G20   29.94S FOG
6HR MIN TEMP:  70; 6HR MAX TEMP:  82; 6HR PCP:  1.20;

ALBION         CLOUDY    72  71  96 SE3       29.97R
BLAIR          LGT RAIN  72  70  92 E6        29.97F
COLUMBUS       CLOUDY    72  71  97 E3        29.98R
FREMONT        LGT RAIN  74  74  98 SE7       29.97R
TEKAMAH        LGT RAIN  72  71  97 CALM      29.96F
6HR MIN TEMP:  71; 6HR MAX TEMP:  81; 6HR PCP:  0.48;

WAYNE          LGT RAIN  72  71  98 SE12      29.93F
$$

NEZ050>053-065>068-078-088>093-261300-
SOUTHEAST NEBRASKA

CITY           SKY/WX    TMP DP  RH WIND       PRES   REMARKS
LINCOLN        LGT RAIN  74  73  97 S10       29.98R
6HR MIN TEMP:  74; 6HR MAX TEMP:  83; 6HR PCP:  0.35;

OMAHA EPPLEY   LGT RAIN  75  70  84 SE5       29.98F
6HR MIN TEMP:  75; 6HR MAX TEMP:  83; 6HR PCP:  0.20;

BEATRICE       CLOUDY    75  73  95 SE3       30.02R
FALLS CITY     CLOUDY    79  72  79 S5        29.96R
6HR MIN TEMP:  76; 6HR MAX TEMP:  80;

NEBRASKA CITY  TSTM      74  74 100 W7        30.01R
$$

NEZ044-045-051>053-067-261300-
OMAHA AREA

CITY           SKY/WX    TMP DP  RH WIND       PRES   REMARKS
OMAHA EPPLEY   LGT RAIN  75  70  84 SE5       29.98F
6HR MIN TEMP:  75; 6HR MAX TEMP:  83; 6HR PCP:  0.20;

BLAIR          LGT RAIN  72  70  92 E6        29.97F
FREMONT        LGT RAIN  74  74  98 SE7       29.97R
MILLARD        LGT RAIN  73  72  97 CALM      29.98S
OFFUTT AFB     LGT RAIN  73  71  94 E6        29.98F
WAHOO          LGT RAIN  74  73  96 SE7       29.97R
$$



USA.gov is the U.S. government's official web portal to all federal, state and local government web resources and services.